• In Netherlands
  • List of Countries
  • For 7 days
  • Water Temperature
  • Satellite Maps
  • Weather Map
  • Weather Widgets
  • user-avatar
    Login

    Hourly Weather Salta

    Today, 28 February, Tuesday

    Time Temperature Precipitation Wind Pressure Humidity
    00:00 +22°C° 1.1 mm 1 mps 651 mmHg 85%
    01:00 +21°C° 1.1 mm 2 mps 650 mmHg 85%
    02:00 +20°C° 1.1 mm 2 mps 650 mmHg 84%
    03:00 +20°C° 0.9 mm 2 mps 650 mmHg 85%
    04:00 +20°C° 0.9 mm 2 mps 650 mmHg 86%
    05:00 +20°C° 0.9 mm 2 mps 650 mmHg 86%
    06:00 +20°C° 0.8 mm 2 mps 651 mmHg 83%
    07:00 +21°C° 0.8 mm 2 mps 651 mmHg 80%
    08:00 +21°C° 0.8 mm 2 mps 651 mmHg 77%
    09:00 +23°C° 0.2 mm 2 mps 651 mmHg 71%
    10:00 +25°C° 0.2 mm 2 mps 652 mmHg 64%
    11:00 +26°C° 0.2 mm 2 mps 652 mmHg 58%
    12:00 +27°C° 0 mm 2 mps 651 mmHg 53%
    13:00 +28°C° 0 mm 2 mps 651 mmHg 48%
    14:00 +29°C° 0 mm 3 mps 650 mmHg 43%
    15:00 +29°C° 0.1 mm 3 mps 649 mmHg 45%
    16:00 +29°C° 0.1 mm 3 mps 649 mmHg 46%
    17:00 +29°C° 0.1 mm 3 mps 648 mmHg 48%
    18:00 +26°C° 0 mm 2 mps 648 mmHg 57%
    19:00 +24°C° 0 mm 2 mps 648 mmHg 66%
    20:00 +22°C° 0 mm 1 mps 648 mmHg 75%
    21:00 +22°C° 0.3 mm 1 mps 648 mmHg 77%
    22:00 +19°C° 0.3 mm 0 mps 649 mmHg 79%
    23:00 +19°C° 0.3 mm 0 mps 649 mmHg 81%

    Tomorrow, 1 March, Wednesday

    Time Temperature Precipitation Wind Pressure Humidity
    00:00 +19°C° 0.3 mm 0 mps 648 mmHg 82%
    01:00 +18°C° 0.3 mm 0 mps 648 mmHg 83%
    02:00 +18°C° 0.3 mm 0 mps 648 mmHg 84%
    03:00 +18°C° 0.1 mm 0 mps 647 mmHg 85%
    04:00 +17°C° 0.1 mm 0 mps 647 mmHg 86%
    05:00 +19°C° 0.1 mm 1 mps 647 mmHg 87%
    06:00 +19°C° 0 mm 0 mps 648 mmHg 79%
    07:00 +21°C° 0 mm 0 mps 649 mmHg 70%
    08:00 +22°C° 0 mm 0 mps 650 mmHg 62%
    09:00 +26°C° 0.1 mm 1 mps 650 mmHg 56%
    10:00 +28°C° 0.1 mm 1 mps 650 mmHg 50%
    11:00 +29°C° 0.1 mm 2 mps 650 mmHg 44%
    12:00 +30°C° 0.2 mm 2 mps 650 mmHg 43%
    13:00 +31°C° 0.2 mm 3 mps 649 mmHg 41%
    14:00 +31°C° 0.2 mm 3 mps 649 mmHg 40%
    15:00 +31°C° 0.2 mm 3 mps 648 mmHg 42%
    16:00 +30°C° 0.2 mm 3 mps 648 mmHg 43%
    17:00 +30°C° 0.2 mm 3 mps 647 mmHg 45%
    18:00 +28°C° 0.1 mm 3 mps 647 mmHg 54%
    19:00 +26°C° 0.1 mm 2 mps 647 mmHg 62%
    20:00 +23°C° 0.1 mm 1 mps 647 mmHg 71%
    21:00 +23°C° 0.1 mm 1 mps 647 mmHg 72%
    22:00 +22°C° 0.1 mm 1 mps 648 mmHg 74%
    23:00 +22°C° 0.1 mm 1 mps 648 mmHg 76%

    Day after tomorrow, 2 March, Thursday

    Time Temperature Precipitation Wind Pressure Humidity
    00:00 +21°C° 0 mm 1 mps 647 mmHg 78%
    01:00 +21°C° 0 mm 1 mps 647 mmHg 80%
    02:00 +21°C° 0 mm 1 mps 646 mmHg 81%
    03:00 +20°C° 0 mm 1 mps 646 mmHg 82%
    04:00 +20°C° 0 mm 1 mps 646 mmHg 83%
    05:00 +20°C° 0 mm 1 mps 645 mmHg 84%
    06:00 +22°C° 0 mm 1 mps 646 mmHg 76%
    07:00 +23°C° 0 mm 1 mps 647 mmHg 69%
    08:00 +25°C° 0 mm 1 mps 648 mmHg 61%
    09:00 +27°C° 0 mm 2 mps 648 mmHg 56%
    10:00 +28°C° 0 mm 2 mps 648 mmHg 50%
    11:00 +30°C° 0 mm 3 mps 648 mmHg 44%
    12:00 +30°C° 0.5 mm 3 mps 648 mmHg 44%
    13:00 +31°C° 0.5 mm 3 mps 647 mmHg 44%
    14:00 +31°C° 0.5 mm 3 mps 646 mmHg 44%
    15:00 +30°C° 0.9 mm 3 mps 646 mmHg 48%
    16:00 +29°C° 0.9 mm 2 mps 645 mmHg 52%
    17:00 +28°C° 0.9 mm 2 mps 645 mmHg 55%
    18:00 +27°C° 1.5 mm 2 mps 645 mmHg 63%
    19:00 +25°C° 1.5 mm 2 mps 646 mmHg 70%
    20:00 +23°C° 1.5 mm 2 mps 646 mmHg 77%
    21:00 +23°C° 2.3 mm 2 mps 647 mmHg 79%
    22:00 +23°C° 2.3 mm 2 mps 647 mmHg 81%
    23:00 +21°C° 2.3 mm 2 mps 648 mmHg 83%

    3 March, Friday

    Time Temperature Precipitation Wind Pressure Humidity
    00:00 +22°C° 1.2 mm 1 mps 647 mmHg 82%
    01:00 +22°C° 1.2 mm 1 mps 647 mmHg 82%
    02:00 +21°C° 1.2 mm 1 mps 647 mmHg 82%
    03:00 +22°C° 0.3 mm 1 mps 647 mmHg 80%
    04:00 +21°C° 0.3 mm 2 mps 647 mmHg 79%
    05:00 +21°C° 0.3 mm 2 mps 647 mmHg 77%
    06:00 +21°C° 0.2 mm 2 mps 648 mmHg 78%
    07:00 +21°C° 0.2 mm 2 mps 649 mmHg 79%
    08:00 +21°C° 0.2 mm 2 mps 649 mmHg 80%
    09:00 +21°C° 0.2 mm 2 mps 649 mmHg 78%
    10:00 +23°C° 0.2 mm 2 mps 649 mmHg 76%
    11:00 +23°C° 0.2 mm 2 mps 650 mmHg 75%
    12:00 +25°C° 0.1 mm 3 mps 649 mmHg 67%
    13:00 +27°C° 0.1 mm 4 mps 649 mmHg 59%
    14:00 +28°C° 0.1 mm 5 mps 649 mmHg 52%
    15:00 +27°C° 0.6 mm 5 mps 649 mmHg 58%
    16:00 +26°C° 0.6 mm 4 mps 648 mmHg 65%
    17:00 +23°C° 0.6 mm 4 mps 648 mmHg 72%
    18:00 +22°C° 0.6 mm 3 mps 648 mmHg 77%
    19:00 +21°C° 0.6 mm 3 mps 649 mmHg 83%
    20:00 +19°C° 0.6 mm 2 mps 649 mmHg 89%
    21:00 +20°C° 0.2 mm 1 mps 650 mmHg 90%
    22:00 +20°C° 0.2 mm 1 mps 650 mmHg 91%
    23:00 +19°C° 0.2 mm 1 mps 650 mmHg 91%

    4 March, Saturday

    Time Temperature Precipitation Wind Pressure Humidity
    00:00 +19°C° 0 mm 1 mps 650 mmHg 91%
    01:00 +19°C° 0 mm 1 mps 650 mmHg 90%
    02:00 +19°C° 0 mm 1 mps 649 mmHg 90%
    03:00 +19°C° 0 mm 1 mps 649 mmHg 90%
    04:00 +18°C° 0 mm 1 mps 649 mmHg 90%
    05:00 +18°C° 0 mm 1 mps 649 mmHg 90%
    06:00 +19°C° 0 mm 1 mps 650 mmHg 86%
    07:00 +20°C° 0 mm 1 mps 650 mmHg 81%
    08:00 +21°C° 0 mm 1 mps 651 mmHg 76%
    09:00 +21°C° 0 mm 2 mps 651 mmHg 71%
    10:00 +24°C° 0 mm 2 mps 652 mmHg 65%
    11:00 +25°C° 0 mm 3 mps 652 mmHg 60%
    12:00 +25°C° 0.1 mm 3 mps 651 mmHg 60%
    13:00 +26°C° 0.1 mm 2 mps 650 mmHg 60%
    14:00 +26°C° 0.1 mm 2 mps 650 mmHg 60%
    15:00 +25°C° 0.1 mm 2 mps 649 mmHg 61%
    16:00 +25°C° 0.1 mm 2 mps 649 mmHg 62%
    17:00 +25°C° 0.1 mm 2 mps 649 mmHg 63%
    18:00 +23°C° 0 mm 2 mps 649 mmHg 68%
    19:00 +21°C° 0 mm 2 mps 649 mmHg 74%
    20:00 +20°C° 0 mm 1 mps 649 mmHg 79%
    21:00 +20°C° 0 mm 1 mps 650 mmHg 79%
    22:00 +20°C° 0 mm 1 mps 650 mmHg 80%
    23:00 +19°C° 0 mm 1 mps 651 mmHg 80%

    5 March, Sunday

    Time Temperature Precipitation Wind Pressure Humidity
    00:00 +19°C° 0 mm 1 mps 650 mmHg 80%
    01:00 +18°C° 0 mm 1 mps 650 mmHg 81%
    02:00 +18°C° 0 mm 1 mps 650 mmHg 81%
    03:00 +18°C° 0 mm 1 mps 650 mmHg 81%
    04:00 +16°C° 0 mm 1 mps 649 mmHg 81%
    05:00 +16°C° 0 mm 1 mps 649 mmHg 80%
    06:00 +18°C° 0 mm 1 mps 650 mmHg 74%
    07:00 +20°C° 0 mm 1 mps 650 mmHg 68%
    08:00 +21°C° 0 mm 1 mps 651 mmHg 62%
    09:00 +23°C° 0 mm 2 mps 651 mmHg 58%
    10:00 +25°C° 0 mm 2 mps 651 mmHg 54%
    11:00 +26°C° 0 mm 3 mps 651 mmHg 50%
    12:00 +27°C° 0 mm 3 mps 651 mmHg 50%
    13:00 +28°C° 0 mm 3 mps 650 mmHg 49%
    14:00 +28°C° 0 mm 3 mps 650 mmHg 49%
    15:00 +28°C° 0.1 mm 3 mps 649 mmHg 52%
    16:00 +27°C° 0.1 mm 3 mps 649 mmHg 55%
    17:00 +27°C° 0.1 mm 3 mps 648 mmHg 58%
    18:00 +25°C° 0.1 mm 3 mps 649 mmHg 66%
    19:00 +23°C° 0.1 mm 2 mps 649 mmHg 74%
    20:00 +21°C° 0.1 mm 2 mps 649 mmHg 83%
    21:00 +21°C° 0.2 mm 1 mps 649 mmHg 85%
    22:00 +21°C° 0.2 mm 1 mps 650 mmHg 87%
    23:00 +21°C° 0.2 mm 1 mps 650 mmHg 90%
    Show more